sat.trackr.live / text

‹ back to catalog

MUOS-1

NORAD 38093 · 2012-009A

PAYLOAD ACTIVE UNKNOWN

§ Identity

Operator
Country
US
Launch date
2012-02-24
Launch site
AFETR
Launch vehicle
Mass (kg)
RCS (m²)
39.81

Purposes: comms

External: N2YO · Heavens-Above · Gunter

§ Orbital elements

Epoch: 2026-05-25T03:18:38.663136Z

Period
1,436.10 min
Inclination
5.4299°
Eccentricity
0.0059169
Mean motion
1.00271583 rev/d
Perigee alt
35,537.2 km
Apogee alt
36,036.1 km
Semi-major
42,164.8 km
B*
0.0000e+0
RAAN
47.1690°
Arg perigee
0.0790°
Mean anomaly
145.2198°
Rev number
5,221

§ Raw data

MUOS-11 38093U 12009A   26145.13794749 -.00000130  00000+0  00000+0 0  99902 38093   5.4299  47.1690 0059169   0.0790 145.2198  1.00271583 52214

JSON: /api/v1/satellites/38093 · /tle

For live sub-satellite position, see the globe view (requires WebGL).

§ Visibility from observer

Set your observer location to see the next 7 days of passes ≥ 10°. The values pass through the URL so the page stays shareable.

No JS? Fill the form by hand. The geolocation button needs JavaScript.